Wind_Speed
10 9 8 8 8 6 5 5 5 4 3 3 2 2 2 2 2 3 4 4 4 5 6 6 6 6 6 6 7 7 6 6 6 6 6 6 6 5 4 4 3 3 3 3
11 10 10 10 9 8 7 6 6 6 5 5 5 4 3 2 2 1 2 3 3 3 5 5 5 4 5 5 6 6 6 5 5 5 5 5 5 5 5 5 4 4 3 3
12 11 12 11 11 10 9 8 8 8 8 8 7 5 4 4 3 2 1 1 1 3 3 4 4 4 4 4 5 5 5 5 5 5 5 5 5 5 5 4 4 4 4 3
15 14 13 12 12 11 10 10 11 11 10 9 9 8 5 5 5 5 3 2 1 1 3 2 2 2 2 2 3 4 5 5 5 5 4 5 5 5 5 5 5 5 4 3
16 16 15 14 13 12 11 13 13 12 12 11 10 9 7 7 7 7 6 4 2 2 2 3 2 1 0 1 1 3 4 4 5 5 4 5 5 5 5 5 5 5 5 4
19 18 17 16 15 14 13 14 14 14 14 13 11 11 9 8 8 8 8 6 4 3 3 4 3 2 1 2 2 2 3 3 4 5 5 5 5 6 6 6 6 6 6 6
20 19 18 17 17 16 16 16 16 16 16 14 13 13 11 10 10 9 9 8 6 6 5 5 5 4 3 3 3 3 3 4 5 5 5 6 7 7 7 7 7 7 7 7
20 19 18 18 18 18 17 18 19 19 18 16 15 14 13 12 12 10 10 9 8 7 7 6 6 5 5 5 5 5 5 5 5 6 6 7 7 8 8 8 9 9 8 9
22 20 19 19 18 20 19 19 20 21 20 19 17 15 14 14 13 12 11 11 10 9 9 8 7 7 6 6 6 7 7 7 7 8 8 9 8 9 9 9 10 10 10 10
23 22 21 20 21 22 21 21 21 21 21 20 18 16 15 14 14 13 12 12 11 9 9 9 8 8 8 8 8 9 8 8 9 10 10 10 11 11 10 10 10 11 11 11
24 24 23 23 23 23 23 22 22 22 22 21 21 18 16 14 14 14 12 12 11 10 9 9 10 10 10 10 10 10 10 10 10 11 11 11 11 12 12 12 12 12 12 12
25 25 25 25 24 24 24 24 23 23 23 23 22 19 17 16 15 15 14 13 13 12 11 12 12 12 12 12 11 11 11 11 12 12 12 12 12 13 14 14 13 13 14 14
26 26 26 26 26 26 25 25 24 24 24 24 23 20 17 16 15 15 15 14 14 14 14 14 14 13 13 12 12 13 13 13 14 14 14 13 14 14 14 14 15 15 16 15
27 27 26 26 26 26 26 26 26 26 26 25 23 21 18 18 17 16 16 15 15 15 15 15 15 15 15 14 14 15 15 15 16 16 16 15 16 16 16 16 16 17 17 17
28 28 27 26 26 27 27 26 26 26 27 27 25 23 20 19 18 18 17 17 17 17 17 17 17 17 17 17 17 16 16 17 17 18 19 18 18 19 19 18 18 18 19 19
29 29 28 27 27 28 28 27 26 26 27 27 27 24 22 21 19 19 19 18 18 18 19 19 18 19 18 18 18 18 18 18 18 18 19 19 19 20 19 19 19 19 20 20
30 30 29 29 29 29 29 27 26 26 26 26 26 24 23 22 20 20 20 19 19 20 21 20 20 19 19 19 19 19 19 19 19 20 20 20 20 19 19 19 20 21 21 22
29 30 30 30 30 31 29 28 27 26 27 26 26 25 23 22 21 21 21 21 20 20 21 22 21 21 21 21 21 21 21 21 21 21 21 22 22 22 21 21 22 23 23 23
28 30 30 30 31 31 30 29 28 28 27 26 26 26 26 25 23 22 22 22 22 21 22 23 23 23 23 23 22 23 23 23 23 23 23 23 23 23 23 23 23 24 24 24
28 29 30 30 31 31 29 28 29 29 29 26 26 26 26 26 25 24 23 23 23 23 23 24 24 24 24 23 24 24 24 24 24 24 24 24 24 24 24 24 24 25 25 25
28 28 29 29 30 30 29 29 29 30 29 28 28 27 27 26 25 24 24 24 24 24 25 25 25 25 25 25 25 25 25 25 25 25 25 25 25 24 24 25 25 25 26 26
28 29 29 30 30 30 29 29 29 29 29 29 28 28 28 28 27 25 25 25 26 26 27 26 26 26 26 26 26 26 26 26 27 27 26 27 27 27 26 26 26 27 27 27
28 28 30 31 31 29 28 28 29 29 29 29 29 28 28 28 27 27 26 25 25 26 26 26 27 27 27 27 27 27 28 28 29 28 28 28 28 28 28 28 28 28 29 29
27 28 29 30 30 29 29 28 29 29 28 29 29 28 27 27 26 27 26 25 25 25 25 26 27 27 28 29 29 29 29 30 30 31 30 30 29 29 29 30 30 30 30 30
26 26 27 28 28 27 28 29 30 29 28 28 29 27 27 27 27 26 26 26 26 26 27 27 27 28 28 29 29 30 31 31 31 31 31 31 30 30 30 30 30 30 30 30
24 25 25 25 25 27 27 28 29 30 30 29 28 28 27 27 27 27 28 27 27 27 27 28 28 28 29 29 30 31 31 31 31 31 31 31 31 31 30 30 30 30 29 29
Wind_Direction
226 224 222 221 226 230 238 245 255 257 253 266 279 307 351 9 15 40 39 48 64 81 89 86 85 80 72 63 60 61 64 65 60 56 54 50 50 51 45 29 14 18 10 7
229 226 225 230 231 230 235 243 253 257 256 265 273 278 294 313 326 38 45 45 66 76 88 94 91 84 76 63 58 57 56 53 51 49 45 41 39 38 32 27 16 13 9 1
232 229 232 233 233 233 236 245 251 254 257 261 263 266 273 274 279 286 300 11 55 83 99 99 88 78 74 66 62 55 48 43 39 35 29 29 24 18 17 18 12 5 359 351
233 233 234 233 236 240 241 247 254 254 257 261 263 264 267 265 268 271 270 286 297 110 126 122 105 79 68 66 70 56 44 38 31 24 20 17 15 11 5 1 360 358 353 351
234 236 238 237 242 248 249 248 250 252 254 259 263 267 265 265 267 267 265 269 266 235 187 171 166 140 45 349 8 37 31 27 18 11 8 2 357 353 351 350 350 352 345 336
232 235 239 241 241 245 246 249 249 251 254 257 262 265 264 268 269 268 262 256 260 241 215 203 198 218 262 272 299 335 3 2 360 2 360 350 340 335 341 340 344 344 338 331
233 234 238 240 241 246 246 250 252 253 257 259 262 265 265 264 263 263 257 247 247 238 235 229 224 228 245 253 268 294 317 329 337 337 334 333 330 331 335 335 335 336 333 331
236 236 239 242 245 248 247 249 254 258 261 260 260 263 267 265 261 258 253 242 240 241 238 232 230 233 245 255 265 280 288 299 308 310 309 312 321 326 325 323 324 326 323 320
238 239 240 243 245 247 247 249 252 257 260 262 262 265 267 265 261 254 250 244 243 246 243 237 237 241 251 261 267 271 277 285 293 297 297 298 303 308 310 311 314 314 314 314
238 240 240 241 244 245 247 250 252 255 259 263 264 267 270 267 260 252 248 244 246 249 248 246 247 250 255 261 267 273 277 283 286 289 292 295 295 295 297 302 304 304 306 309
239 240 241 242 244 246 245 247 251 254 258 264 266 268 269 268 258 253 251 251 249 250 248 249 253 257 260 261 266 272 276 278 282 286 289 294 292 292 292 296 298 297 298 302
241 243 244 243 244 245 246 249 250 252 257 262 267 267 266 264 259 251 248 250 252 254 252 256 259 260 262 263 266 270 274 276 279 282 284 287 289 290 292 293 295 294 294 294
241 245 246 244 243 244 246 248 249 251 256 259 264 266 263 260 257 253 250 251 252 254 255 260 264 264 265 268 270 272 274 276 280 281 283 285 287 288 289 289 291 291 292 294
244 244 245 245 246 245 245 247 249 251 254 257 262 265 262 258 256 254 250 249 251 255 258 262 265 266 269 271 274 275 275 278 281 282 282 284 285 286 286 286 287 290 291 292
245 244 244 245 246 246 246 248 250 252 252 256 260 261 261 259 255 254 251 250 251 255 257 261 266 268 271 274 275 277 278 280 284 284 283 282 281 283 284 285 287 290 291 291
244 245 245 245 247 248 248 249 251 254 254 256 258 258 258 258 255 256 256 254 255 257 259 263 268 269 271 274 277 280 283 283 283 284 283 281 281 280 280 285 288 289 290 290
244 244 246 246 247 248 248 249 252 254 255 257 257 256 257 257 256 258 260 259 260 260 261 263 266 269 272 275 277 280 282 282 284 285 285 285 284 284 284 286 287 288 288 289
246 245 246 248 248 248 250 250 251 253 254 255 253 253 254 255 256 259 261 261 264 264 262 261 265 267 270 275 278 282 283 284 285 285 285 286 286 286 287 287 287 287 287 288
248 248 247 247 248 250 252 252 253 254 255 254 251 251 251 253 255 257 260 262 263 266 262 261 264 267 269 273 278 281 284 284 284 285 285 286 286 285 285 285 286 285 285 286
247 247 248 248 250 250 252 254 254 254 255 253 252 251 251 253 255 257 261 264 265 266 264 263 264 266 269 273 276 279 283 284 284 284 284 285 286 286 285 284 284 284 285 285
245 246 248 250 251 252 253 254 253 253 255 254 254 252 251 253 255 257 260 264 266 267 265 264 264 265 268 271 273 277 282 283 284 283 283 285 286 286 285 284 284 284 284 284
246 246 248 250 251 253 254 254 253 253 254 255 256 255 254 254 256 258 259 260 264 266 263 263 264 265 268 270 273 277 281 281 282 283 283 284 284 284 284 283 283 283 282 283
248 249 251 251 253 254 254 255 253 253 254 256 256 256 255 255 255 258 258 259 264 266 260 260 263 265 267 270 272 276 279 281 282 283 284 284 284 283 283 282 282 283 283 282
248 249 252 253 255 255 254 253 253 253 254 254 255 255 256 257 256 256 256 258 261 263 260 260 263 266 268 271 274 276 279 281 282 281 281 282 282 282 282 282 282 283 283 283
251 251 253 255 255 255 254 254 254 253 253 252 253 253 254 255 256 256 257 258 260 262 262 262 263 265 268 271 273 276 278 279 281 280 280 281 281 281 282 282 282 283 283 283
253 254 256 259 258 257 256 255 254 253 252 252 254 253 252 252 255 256 257 256 258 261 262 263 265 267 271 272 274 277 278 278 279 280 280 280 281 281 281 281 282 282 283 283
Height
5893 5895 5895 5897 5898 5899 5899 5899 5900 5900 5899 5899 5899 5899 5899 5899 5899 5898 5898 5897 5896 5895 5895 5894 5894 5893 5893 5893 5892 5892 5891 5891 5890 5889 5889 5888 5888 5887 5887 5886 5885 5884 5884 5883
5892 5893 5894 5895 5896 5897 5898 5898 5899 5899 5899 5899 5899 5899 5899 5899 5898 5898 5898 5897 5896 5895 5895 5895 5894 5894 5894 5893 5893 5893 5892 5892 5891 5890 5890 5889 5888 5888 5887 5886 5885 5884 5884 5883
5890 5892 5892 5893 5894 5896 5896 5897 5898 5898 5898 5898 5898 5899 5899 5898 5898 5898 5897 5897 5896 5895 5895 5895 5895 5895 5894 5894 5894 5893 5892 5892 5891 5891 5890 5889 5889 5888 5887 5886 5885 5884 5883 5883
5887 5889 5890 5891 5892 5893 5894 5895 5896 5896 5896 5896 5897 5897 5898 5898 5897 5897 5897 5896 5896 5895 5895 5895 5895 5895 5895 5894 5894 5893 5893 5892 5891 5891 5890 5889 5889 5888 5887 5886 5885 5884 5883 5882
5885 5886 5887 5889 5891 5891 5892 5893 5893 5894 5894 5894 5895 5896 5897 5896 5896 5896 5896 5896 5895 5895 5895 5895 5895 5895 5895 5894 5894 5893 5893 5892 5891 5891 5890 5889 5888 5887 5886 5885 5884 5883 5882 5881
5881 5883 5884 5886 5888 5889 5890 5890 5890 5891 5891 5892 5893 5893 5895 5895 5894 5894 5894 5894 5894 5894 5894 5894 5894 5894 5894 5894 5893 5893 5892 5892 5891 5890 5889 5889 5888 5886 5885 5884 5884 5883 5882 5881
5877 5879 5881 5882 5884 5885 5886 5888 5888 5888 5889 5890 5890 5890 5892 5892 5892 5892 5892 5892 5892 5893 5893 5893 5893 5893 5893 5893 5892 5892 5891 5891 5890 5889 5888 5888 5887 5885 5884 5884 5883 5882 5881 5880
5873 5876 5877 5878 5880 5881 5882 5884 5885 5885 5886 5887 5887 5887 5889 5889 5889 5888 5889 5889 5890 5891 5891 5892 5892 5892 5892 5891 5891 5890 5890 5889 5889 5888 5887 5886 5885 5884 5883 5882 5881 5880 5879 5879
5868 5871 5874 5875 5876 5878 5878 5880 5881 5882 5882 5882 5883 5884 5884 5885 5885 5885 5886 5887 5888 5889 5889 5889 5890 5890 5890 5890 5889 5889 5888 5887 5887 5886 5885 5884 5883 5882 5881 5880 5880 5879 5878 5877
5864 5866 5869 5870 5872 5873 5874 5876 5876 5877 5877 5877 5879 5880 5881 5881 5882 5882 5883 5884 5885 5886 5887 5887 5887 5887 5887 5887 5887 5886 5886 5885 5884 5883 5882 5880 5879 5879 5879 5878 5877 5877 5876 5875
5859 5861 5863 5865 5866 5868 5870 5871 5871 5872 5873 5874 5874 5878 5878 5878 5879 5880 5881 5881 5882 5883 5884 5884 5885 5885 5885 5885 5884 5884 5883 5882 5881 5880 5879 5878 5877 5876 5876 5876 5875 5874 5873 5872
5853 5855 5857 5859 5861 5863 5864 5865 5867 5868 5869 5869 5870 5875 5874 5875 5875 5876 5877 5878 5879 5880 5881 5881 5882 5882 5881 5881 5881 5880 5880 5879 5878 5877 5876 5875 5874 5874 5873 5872 5872 5871 5869 5868
5847 5849 5851 5853 5857 5858 5858 5860 5861 5863 5864 5864 5866 5871 5870 5870 5871 5872 5874 5874 5875 5876 5877 5877 5878 5877 5877 5877 5877 5876 5876 5875 5874 5874 5873 5872 5871 5870 5869 5868 5868 5867 5866 5865
5841 5843 5846 5848 5850 5851 5853 5855 5856 5857 5858 5859 5862 5864 5866 5866 5867 5869 5870 5870 5871 5872 5872 5873 5873 5873 5873 5873 5873 5872 5871 5871 5870 5869 5869 5868 5867 5867 5866 5865 5864 5863 5862 5861
5835 5837 5839 5841 5843 5845 5847 5849 5850 5851 5853 5855 5857 5859 5861 5862 5863 5864 5865 5866 5867 5867 5868 5868 5869 5869 5869 5868 5868 5867 5867 5866 5865 5864 5864 5863 5863 5862 5861 5860 5859 5858 5857 5856
5828 5830 5832 5835 5836 5838 5840 5842 5844 5846 5847 5849 5851 5853 5856 5857 5858 5859 5860 5861 5862 5862 5862 5863 5863 5863 5863 5863 5862 5862 5861 5861 5860 5859 5859 5858 5857 5857 5856 5855 5855 5853 5852 5851
5821 5823 5825 5828 5830 5831 5833 5837 5839 5840 5842 5844 5845 5848 5850 5851 5852 5853 5855 5855 5856 5856 5857 5857 5857 5857 5857 5857 5856 5856 5855 5854 5854 5853 5853 5852 5852 5851 5851 5850 5849 5848 5847 5846
5814 5816 5818 5820 5823 5824 5830 5831 5832 5834 5835 5837 5839 5841 5843 5845 5846 5847 5848 5849 5850 5850 5850 5851 5851 5851 5851 5851 5850 5850 5849 5849 5848 5847 5847 5846 5845 5845 5844 5844 5843 5842 5841 5840
5807 5809 5811 5813 5815 5817 5821 5824 5825 5827 5829 5831 5832 5834 5836 5838 5840 5841 5842 5843 5844 5844 5844 5845 5845 5845 5845 5845 5845 5844 5844 5843 5842 5841 5841 5840 5839 5838 5838 5837 5836 5835 5834 5833
5800 5802 5804 5806 5807 5810 5815 5817 5818 5820 5821 5824 5825 5827 5829 5831 5833 5835 5836 5836 5837 5837 5838 5838 5838 5839 5838 5838 5838 5838 5837 5836 5836 5835 5834 5833 5832 5831 5830 5830 5829 5828 5827 5826
5793 5794 5797 5799 5800 5802 5806 5809 5810 5813 5815 5817 5818 5820 5821 5823 5826 5829 5829 5829 5830 5830 5831 5831 5831 5832 5832 5832 5832 5831 5831 5830 5829 5828 5827 5826 5825 5824 5824 5823 5822 5820 5819 5818
5786 5788 5790 5792 5793 5798 5799 5801 5803 5805 5807 5809 5811 5812 5814 5816 5818 5820 5821 5822 5822 5822 5823 5824 5824 5824 5825 5824 5824 5824 5824 5823 5822 5821 5820 5819 5818 5817 5816 5815 5814 5813 5812 5811
5779 5782 5783 5786 5789 5790 5792 5793 5795 5797 5799 5801 5803 5805 5807 5808 5810 5812 5813 5814 5815 5815 5815 5816 5816 5817 5817 5817 5817 5817 5816 5816 5815 5814 5813 5811 5810 5809 5808 5807 5806 5805 5803 5802
5773 5775 5776 5778 5780 5782 5784 5786 5788 5789 5792 5794 5795 5797 5799 5801 5803 5804 5805 5807 5808 5808 5808 5809 5809 5809 5810 5809 5809 5808 5808 5807 5807 5806 5804 5803 5802 5801 5800 5798 5797 5796 5795 5794
5766 5768 5769 5770 5772 5774 5776 5778 5780 5782 5784 5786 5788 5789 5791 5793 5795 5796 5798 5799 5800 5800 5801 5801 5801 5801 5801 5801 5801 5800 5799 5799 5798 5796 5795 5793 5792 5792 5791 5790 5788 5787 5786 5784
5760 5761 5762 5764 5765 5766 5768 5770 5772 5774 5776 5778 5780 5782 5783 5785 5787 5788 5790 5791 5792 5792 5792 5792 5793 5793 5793 5792 5792 5791 5790 5789 5788 5787 5786 5785 5784 5783 5782 5781 5779 5778 5777 5775